Location: Pedholt
(56.0260°N, 10.2097°E)
Time: 07:44:37
(UTC+00:00)

Transit 2A Rocket - Pass Details

Date: 04 August 2021
Orbit: 586 x 917 km, 66.7° (Epoch: 24 September)

Event Time Altitude Azimuth Distance (km) Brightness Sun altitude
Rises 20:19:04 0° 315° (NW) 3,198 11.0 -7.2°
Reaches altitude 10° 20:21:21 10° 315° (NW) 2,321 9.3 -7.4°
Maximum altitude 20:26:44 88° 230° (SW) 831 5.2 -7.9°
Enters shadow 20:32:31 10° 139° (SE) 2,485 6.9 -8.5°
Drops below altitude 10° 20:32:36 10° 139° (SE) 2,516 - -8.5°
Sets 20:35:10 0° 139° (SE) 3,485 - -8.7°
